Time,TemperatureF,DewpointF,PressureIn,WindDirection,WindDirectionDegrees,WindSpeedMPH,WindSpeedGustMPH,Humidity,HourlyPrecipIn,Conditions,Clouds,dailyrainin,SolarRadiationWatts/m^2,SoftwareType,DateUTC
2013-03-24 00:02:00,51.1,49.4,29.68,NW,324,0.0,0.0,94,0.15,,,0.01,0.00,VWS V14.01,2013-03-24 05:02:00,
2013-03-24 00:07:00,51.1,49.4,29.66,NW,324,0.0,2.0,94,0.16,,,0.02,0.00,VWS V14.01,2013-03-24 05:07:00,
2013-03-24 00:12:00,51.0,49.3,29.66,North,5,1.0,1.0,94,0.13,,,0.03,0.00,VWS V14.01,2013-03-24 05:12:00,
2013-03-24 00:17:00,51.0,49.3,29.63,ESE,113,8.0,9.0,94,0.13,,,0.03,0.00,VWS V14.01,2013-03-24 05:17:00,
2013-03-24 00:22:00,50.9,49.2,29.62,ESE,109,8.0,8.0,94,0.11,,,0.04,0.00,VWS V14.01,2013-03-24 05:22:00,
2013-03-24 00:27:00,50.8,49.1,29.62,NE,36,0.0,8.0,94,0.11,,,0.04,0.00,VWS V14.01,2013-03-24 05:27:00,
2013-03-24 00:32:00,50.8,49.1,29.64,NW,311,0.0,4.0,94,0.10,,,0.05,0.00,VWS V14.01,2013-03-24 05:32:00,
2013-03-24 00:37:00,50.8,49.1,29.64,NNE,28,0.0,4.0,94,0.10,,,0.05,0.00,VWS V14.01,2013-03-24 05:37:00,
2013-03-24 00:42:00,50.8,49.1,29.63,NE,34,3.0,5.0,94,0.09,,,0.05,0.00,VWS V14.01,2013-03-24 05:42:00,
2013-03-24 00:47:00,50.8,49.1,29.59,East,87,2.0,7.0,94,0.09,,,0.05,0.00,VWS V14.01,2013-03-24 05:47:00,
2013-03-24 00:52:00,50.7,49.0,29.62,East,84,0.0,6.0,94,0.08,,,0.05,0.00,VWS V14.01,2013-03-24 05:52:00,
2013-03-24 00:57:00,50.7,49.0,29.63,NW,325,0.0,6.0,94,0.08,,,0.05,0.00,VWS V14.01,2013-03-24 05:57:00,
2013-03-24 01:02:00,50.7,49.0,29.63,NNE,19,0.0,1.0,94,0.05,,,0.05,0.00,VWS V14.01,2013-03-24 06:02:00,
2013-03-24 01:07:00,50.7,49.0,29.62,NNE,25,0.0,3.0,94,0.05,,,0.05,0.00,VWS V14.01,2013-03-24 06:07:00,
2013-03-24 01:12:00,50.7,49.0,29.63,NNE,26,0.0,0.0,94,0.02,,,0.05,0.00,VWS V14.01,2013-03-24 06:12:00,
2013-03-24 01:17:00,50.7,49.0,29.62,ENE,62,1.0,4.0,94,0.02,,,0.05,0.00,VWS V14.01,2013-03-24 06:17:00,
2013-03-24 01:22:00,50.7,49.0,29.60,East,96,2.0,7.0,94,0.01,,,0.05,0.00,VWS V14.01,2013-03-24 06:22:00,
2013-03-24 01:27:00,50.7,49.0,29.62,ENE,67,0.0,7.0,94,0.01,,,0.05,0.00,VWS V14.01,2013-03-24 06:27:00,
2013-03-24 01:32:00,50.7,49.0,29.61,ENE,67,0.0,3.0,94,0.00,,,0.05,0.00,VWS V14.01,2013-03-24 06:32:00,
2013-03-24 01:37:00,50.7,49.0,29.61,ESE,105,0.0,5.0,94,0.00,,,0.05,0.00,VWS V14.01,2013-03-24 06:37:00,
2013-03-24 01:42:00,50.7,49.0,29.61,ESE,105,1.0,3.0,94,0.00,,,0.05,0.00,VWS V14.01,2013-03-24 06:42:00,
2013-03-24 01:47:00,50.7,49.0,29.60,ESE,111,2.0,3.0,94,0.00,,,0.05,0.00,VWS V14.01,2013-03-24 06:47:00,
2013-03-24 01:52:00,50.7,49.0,29.60,East,99,5.0,5.0,94,0.00,,,0.05,0.00,VWS V14.01,2013-03-24 06:52:00,
2013-03-24 01:57:00,50.7,49.0,29.60,East,81,2.0,7.0,94,0.00,,,0.05,0.00,VWS V14.01,2013-03-24 06:57:00,
2013-03-24 02:02:00,50.7,49.0,29.60,East,101,1.0,5.0,94,0.00,,,0.05,0.00,VWS V14.01,2013-03-24 07:02:00,
2013-03-24 02:07:00,50.7,49.0,29.60,ESE,119,1.0,5.0,94,0.00,,,0.05,0.00,VWS V14.01,2013-03-24 07:07:00,
2013-03-24 02:12:00,50.7,49.0,29.60,East,95,0.0,2.0,94,0.00,,,0.05,0.00,VWS V14.01,2013-03-24 07:12:00,
2013-03-24 02:17:00,50.7,49.0,29.60,East,95,2.0,3.0,94,0.00,,,0.05,0.00,VWS V14.01,2013-03-24 07:17:00,
2013-03-24 02:22:00,50.7,49.0,29.60,East,95,0.0,2.0,94,0.00,,,0.05,0.00,VWS V14.01,2013-03-24 07:22:00,
2013-03-24 02:27:00,50.7,49.0,29.59,East,95,0.0,2.0,94,0.00,,,0.05,0.00,VWS V14.01,2013-03-24 07:27:00,
2013-03-24 02:32:00,50.6,49.2,29.59,East,95,0.0,0.0,95,0.00,,,0.05,0.00,VWS V14.01,2013-03-24 07:32:00,
2013-03-24 02:37:00,50.7,49.3,29.59,East,95,0.0,1.0,95,0.00,,,0.05,0.00,VWS V14.01,2013-03-24 07:37:00,
2013-03-24 02:42:00,50.7,49.3,29.59,East,95,0.0,0.0,95,0.00,,,0.05,0.00,VWS V14.01,2013-03-24 07:42:00,
2013-03-24 02:47:00,50.7,49.3,29.59,East,96,0.0,0.0,95,0.00,,,0.05,0.00,VWS V14.01,2013-03-24 07:47:00,
2013-03-24 02:52:00,50.7,49.3,29.59,East,95,0.0,2.0,95,0.00,,,0.05,0.00,VWS V14.01,2013-03-24 07:52:00,
2013-03-24 02:57:00,50.7,49.3,29.59,NNW,331,2.0,3.0,95,0.00,,,0.05,0.00,VWS V14.01,2013-03-24 07:57:00,
2013-03-24 03:02:00,50.8,49.4,29.59,NW,317,3.0,4.0,95,0.00,,,0.05,0.00,VWS V14.01,2013-03-24 08:02:00,
2013-03-24 03:07:00,50.7,49.3,29.59,NW,315,4.0,4.0,95,0.00,,,0.05,0.00,VWS V14.01,2013-03-24 08:07:00,
2013-03-24 03:12:00,50.7,49.3,29.59,NNW,329,1.0,3.0,95,0.00,,,0.05,0.00,VWS V14.01,2013-03-24 08:12:00,
2013-03-24 03:17:00,50.7,49.3,29.59,NW,325,2.0,4.0,95,0.00,,,0.05,0.00,VWS V14.01,2013-03-24 08:17:00,
2013-03-24 03:22:00,50.6,49.2,29.59,NW,318,3.0,4.0,95,0.00,,,0.05,0.00,VWS V14.01,2013-03-24 08:22:00,
2013-03-24 03:27:00,50.6,49.2,29.59,NW,311,0.0,4.0,95,0.00,,,0.05,0.00,VWS V14.01,2013-03-24 08:27:00,
2013-03-24 03:32:00,50.6,49.2,29.58,NW,321,3.0,3.0,95,0.00,,,0.05,0.00,VWS V14.01,2013-03-24 08:32:00,
2013-03-24 03:37:00,50.6,49.2,29.58,NW,322,0.0,4.0,95,0.00,,,0.05,0.00,VWS V14.01,2013-03-24 08:37:00,
2013-03-24 03:42:00,50.5,49.1,29.57,NW,322,0.0,0.0,95,0.00,,,0.05,0.00,VWS V14.01,2013-03-24 08:42:00,
2013-03-24 03:47:00,50.5,49.1,29.58,NNW,329,0.0,2.0,95,0.00,,,0.05,0.00,VWS V14.01,2013-03-24 08:47:00,
2013-03-24 03:52:00,50.5,49.1,29.58,NW,324,4.0,4.0,95,0.00,,,0.05,0.00,VWS V14.01,2013-03-24 08:52:00,
2013-03-24 03:57:00,50.5,49.1,29.58,NW,324,1.0,4.0,95,0.00,,,0.05,0.00,VWS V14.01,2013-03-24 08:57:00,
2013-03-24 04:02:00,50.4,49.0,29.58,NW,323,0.0,2.0,95,0.00,,,0.05,0.00,VWS V14.01,2013-03-24 09:02:00,
2013-03-24 04:08:00,50.4,49.0,29.58,NW,324,0.0,4.0,95,0.00,,,0.05,0.00,VWS V14.01,2013-03-24 09:08:00,
2013-03-24 04:13:00,50.4,49.0,29.58,NW,314,0.0,4.0,95,0.00,,,0.05,0.00,VWS V14.01,2013-03-24 09:13:00,
2013-03-24 04:18:00,50.3,48.9,29.58,NW,306,4.0,6.0,95,0.00,,,0.05,0.00,VWS V14.01,2013-03-24 09:18:00,
2013-03-24 04:23:00,50.3,48.9,29.58,NW,308,2.0,4.0,95,0.00,,,0.05,0.00,VWS V14.01,2013-03-24 09:23:00,
2013-03-24 04:28:00,50.3,48.9,29.58,WNW,296,5.0,6.0,95,0.00,,,0.05,0.00,VWS V14.01,2013-03-24 09:28:00,
2013-03-24 04:33:00,50.2,48.8,29.59,WNW,298,3.0,5.0,95,0.00,,,0.05,0.00,VWS V14.01,2013-03-24 09:33:00,
2013-03-24 04:38:00,50.1,48.7,29.59,NW,304,3.0,8.0,95,0.00,,,0.05,0.00,VWS V14.01,2013-03-24 09:38:00,
2013-03-24 04:43:00,50.1,48.7,29.59,WNW,292,4.0,8.0,95,0.00,,,0.05,0.00,VWS V14.01,2013-03-24 09:43:00,
2013-03-24 04:47:00,50.0,48.6,29.59,WNW,294,2.0,8.0,95,0.00,,,0.05,0.00,VWS V14.01,2013-03-24 09:47:00,
2013-03-24 04:52:00,50.0,48.6,29.60,WNW,285,4.0,5.0,95,0.00,,,0.05,0.00,VWS V14.01,2013-03-24 09:52:00,
2013-03-24 04:57:00,49.9,48.5,29.60,West,261,6.0,6.0,95,0.00,,,0.05,0.00,VWS V14.01,2013-03-24 09:57:00,
2013-03-24 05:03:00,49.9,48.5,29.61,West,273,0.0,4.0,95,0.00,,,0.05,0.00,VWS V14.01,2013-03-24 10:03:00,
2013-03-24 05:08:00,49.9,48.5,29.61,West,273,2.0,6.0,95,0.00,,,0.05,0.00,VWS V14.01,2013-03-24 10:08:00,
2013-03-24 05:13:00,49.9,48.5,29.62,West,276,2.0,6.0,95,0.00,,,0.05,0.00,VWS V14.01,2013-03-24 10:13:00,
2013-03-24 05:17:00,49.8,48.4,29.62,WNW,301,3.0,8.0,95,0.00,,,0.05,0.00,VWS V14.01,2013-03-24 10:17:00,
2013-03-24 05:23:00,49.8,48.4,29.62,WNW,295,4.0,5.0,95,0.00,,,0.05,0.00,VWS V14.01,2013-03-24 10:23:00,
2013-03-24 05:28:00,49.8,48.4,29.62,WNW,291,3.0,5.0,95,0.00,,,0.05,0.00,VWS V14.01,2013-03-24 10:28:00,
2013-03-24 05:33:00,49.7,48.3,29.61,WNW,290,3.0,5.0,95,0.00,,,0.05,0.00,VWS V14.01,2013-03-24 10:33:00,
2013-03-24 05:38:00,49.7,48.3,29.61,WNW,290,1.0,5.0,95,0.00,,,0.05,0.00,VWS V14.01,2013-03-24 10:38:00,
2013-03-24 05:43:00,49.7,48.3,29.61,WNW,290,1.0,3.0,95,0.00,,,0.05,0.00,VWS V14.01,2013-03-24 10:43:00,
2013-03-24 05:48:00,49.7,48.3,29.61,WNW,290,0.0,3.0,95,0.00,,,0.05,0.00,VWS V14.01,2013-03-24 10:48:00,
2013-03-24 05:53:00,49.7,48.3,29.62,West,269,1.0,4.0,95,0.00,,,0.05,0.00,VWS V14.01,2013-03-24 10:53:00,
2013-03-24 05:58:00,49.8,48.4,29.62,West,269,1.0,5.0,95,0.00,,,0.05,0.00,VWS V14.01,2013-03-24 10:58:00,
2013-03-24 06:03:00,49.9,48.5,29.63,West,277,0.0,6.0,95,0.00,,,0.05,0.00,VWS V14.01,2013-03-24 11:03:00,
2013-03-24 06:08:00,50.0,48.6,29.62,West,271,2.0,7.0,95,0.00,,,0.05,0.00,VWS V14.01,2013-03-24 11:08:00,
2013-03-24 06:13:00,50.0,48.6,29.61,WNW,293,3.0,8.0,95,0.00,,,0.05,0.00,VWS V14.01,2013-03-24 11:13:00,
2013-03-24 06:18:00,49.9,48.5,29.61,West,280,3.0,8.0,95,0.00,,,0.05,0.00,VWS V14.01,2013-03-24 11:18:00,
2013-03-24 06:23:00,49.8,48.4,29.61,West,279,3.0,5.0,95,0.00,,,0.05,0.00,VWS V14.01,2013-03-24 11:23:00,
2013-03-24 06:28:00,49.7,48.3,29.61,NW,311,5.0,5.0,95,0.00,,,0.05,0.00,VWS V14.01,2013-03-24 11:28:00,
2013-03-24 06:33:00,49.6,48.2,29.61,WNW,287,1.0,3.0,95,0.00,,,0.05,0.00,VWS V14.01,2013-03-24 11:33:00,
2013-03-24 06:38:00,49.5,48.1,29.61,NW,320,2.0,5.0,95,0.00,,,0.05,0.00,VWS V14.01,2013-03-24 11:38:00,
2013-03-24 06:43:00,49.5,48.1,29.60,NW,322,1.0,4.0,95,0.00,,,0.05,0.00,VWS V14.01,2013-03-24 11:43:00,
2013-03-24 06:48:00,49.3,47.9,29.60,NW,315,4.0,5.0,95,0.00,,,0.05,0.00,VWS V14.01,2013-03-24 11:48:00,
2013-03-24 06:53:00,49.2,47.8,29.60,WNW,291,5.0,7.0,95,0.00,,,0.05,0.00,VWS V14.01,2013-03-24 11:53:00,
2013-03-24 06:58:00,49.2,47.8,29.61,West,279,2.0,7.0,95,0.00,,,0.05,0.00,VWS V14.01,2013-03-24 11:58:00,
2013-03-24 07:03:00,49.2,47.8,29.59,West,279,0.0,3.0,95,0.00,,,0.05,0.00,VWS V14.01,2013-03-24 12:03:00,
2013-03-24 07:08:00,49.2,47.8,29.59,WNW,284,1.0,4.0,95,0.00,,,0.05,5.00,VWS V14.01,2013-03-24 12:08:00,
2013-03-24 07:13:00,49.2,47.8,29.58,WNW,286,0.0,3.0,95,0.00,,,0.05,5.00,VWS V14.01,2013-03-24 12:13:00,
2013-03-24 07:18:00,49.0,47.6,29.58,WNW,286,0.0,3.0,95,0.00,,,0.05,12.00,VWS V14.01,2013-03-24 12:18:00,
2013-03-24 07:23:00,49.1,47.7,29.58,WNW,288,0.0,3.0,95,0.00,,,0.05,12.00,VWS V14.01,2013-03-24 12:23:00,
2013-03-24 07:28:00,49.2,47.8,29.57,SE,126,3.0,5.0,95,0.00,,,0.05,23.00,VWS V14.01,2013-03-24 12:28:00,
2013-03-24 07:33:00,49.2,47.8,29.55,SE,125,2.0,5.0,95,0.00,,,0.05,19.00,VWS V14.01,2013-03-24 12:33:00,
2013-03-24 07:38:00,49.3,47.9,29.53,ESE,107,9.0,10.0,95,0.00,,,0.05,16.00,VWS V14.01,2013-03-24 12:38:00,
2013-03-24 07:43:00,49.3,47.9,29.55,South,178,0.0,6.0,95,0.00,,,0.05,9.00,VWS V14.01,2013-03-24 12:43:00,
2013-03-24 07:48:00,49.4,48.0,29.57,South,179,2.0,6.0,95,0.00,,,0.05,9.00,VWS V14.01,2013-03-24 12:48:00,
2013-03-24 07:53:00,49.5,48.1,29.58,South,189,0.0,4.0,95,0.00,,,0.05,16.00,VWS V14.01,2013-03-24 12:53:00,
2013-03-24 07:58:00,49.5,48.1,29.58,South,176,2.0,6.0,95,0.00,,,0.05,37.00,VWS V14.01,2013-03-24 12:58:00,
2013-03-24 08:03:00,49.5,48.1,29.58,South,172,3.0,7.0,95,0.00,,,0.05,28.00,VWS V14.01,2013-03-24 13:03:00,
2013-03-24 08:08:00,49.6,48.2,29.58,South,187,0.0,7.0,95,0.00,,,0.05,23.00,VWS V14.01,2013-03-24 13:08:00,
2013-03-24 08:13:00,49.6,48.2,29.58,South,184,0.0,1.0,95,0.00,,,0.05,18.00,VWS V14.01,2013-03-24 13:13:00,
2013-03-24 08:18:00,49.7,48.3,29.58,South,189,0.0,3.0,95,0.00,,,0.05,25.00,VWS V14.01,2013-03-24 13:18:00,
2013-03-24 08:23:00,49.7,48.3,29.58,South,176,1.0,5.0,95,0.00,,,0.05,35.00,VWS V14.01,2013-03-24 13:23:00,
2013-03-24 08:28:00,49.8,48.4,29.58,South,179,1.0,7.0,95,0.00,,,0.05,26.00,VWS V14.01,2013-03-24 13:28:00,
2013-03-24 08:33:00,49.8,48.4,29.58,South,175,2.0,7.0,95,0.00,,,0.05,18.00,VWS V14.01,2013-03-24 13:33:00,
2013-03-24 08:38:00,49.9,48.5,29.58,SW,217,2.0,7.0,95,0.00,,,0.05,21.00,VWS V14.01,2013-03-24 13:38:00,
2013-03-24 08:43:00,49.9,48.5,29.57,SSW,199,0.0,6.0,95,0.00,,,0.05,26.00,VWS V14.01,2013-03-24 13:43:00,
2013-03-24 08:48:00,49.9,48.5,29.57,South,190,3.0,6.0,95,0.00,,,0.05,30.00,VWS V14.01,2013-03-24 13:48:00,
2013-03-24 08:53:00,49.9,48.5,29.56,SW,234,2.0,6.0,95,0.00,,,0.05,33.00,VWS V14.01,2013-03-24 13:53:00,
2013-03-24 08:58:00,49.9,48.5,29.56,SW,234,1.0,10.0,95,0.00,,,0.05,53.00,VWS V14.01,2013-03-24 13:58:00,
2013-03-24 09:03:00,50.0,48.6,29.56,WSW,257,0.0,6.0,95,0.00,,,0.05,37.00,VWS V14.01,2013-03-24 14:03:00,
2013-03-24 09:08:00,50.0,48.6,29.56,SW,214,0.0,7.0,95,0.00,,,0.05,28.00,VWS V14.01,2013-03-24 14:08:00,
2013-03-24 09:13:00,50.0,48.6,29.56,SW,223,6.0,6.0,95,0.00,,,0.05,26.00,VWS V14.01,2013-03-24 14:13:00,
2013-03-24 09:18:00,50.0,48.6,29.57,SW,229,2.0,6.0,95,0.00,,,0.05,25.00,VWS V14.01,2013-03-24 14:18:00,
2013-03-24 09:23:00,50.0,48.6,29.57,WNW,288,2.0,8.0,95,0.00,,,0.05,33.00,VWS V14.01,2013-03-24 14:23:00,
2013-03-24 09:28:00,50.1,48.7,29.57,West,259,4.0,13.0,95,0.00,,,0.05,23.00,VWS V14.01,2013-03-24 14:28:00,
2013-03-24 09:33:00,50.0,48.6,29.58,WSW,246,7.0,10.0,95,0.00,,,0.05,18.00,VWS V14.01,2013-03-24 14:33:00,
2013-03-24 09:38:00,49.8,48.7,29.58,West,268,3.0,12.0,96,0.00,,,0.05,16.00,VWS V14.01,2013-03-24 14:38:00,
2013-03-24 09:43:00,49.6,48.5,29.58,SW,232,3.0,9.0,96,0.00,,,0.05,16.00,VWS V14.01,2013-03-24 14:43:00,
2013-03-24 09:48:00,49.4,48.0,29.58,West,267,4.0,15.0,95,0.00,,,0.05,28.00,VWS V14.01,2013-03-24 14:48:00,
2013-03-24 09:53:00,49.2,47.8,29.58,West,279,6.0,11.0,95,0.00,,,0.05,44.00,VWS V14.01,2013-03-24 14:53:00,
2013-03-24 09:58:00,49.0,47.6,29.59,SW,233,4.0,17.0,95,0.01,,,0.06,26.00,VWS V14.01,2013-03-24 14:58:00,
2013-03-24 10:03:00,48.5,47.1,29.59,WNW,289,6.0,19.0,95,0.01,,,0.06,25.00,VWS V14.01,2013-03-24 15:03:00,
2013-03-24 10:08:00,47.8,46.4,29.59,West,269,14.0,23.0,95,0.01,,,0.06,23.00,VWS V14.01,2013-03-24 15:08:00,
2013-03-24 10:13:00,47.4,46.0,29.60,SW,223,7.0,20.0,95,0.01,,,0.06,16.00,VWS V14.01,2013-03-24 15:13:00,
2013-03-24 10:18:00,47.2,45.8,29.60,West,259,9.0,23.0,95,0.01,,,0.06,21.00,VWS V14.01,2013-03-24 15:18:00,
2013-03-24 10:23:00,47.0,45.7,29.60,NNW,327,9.0,20.0,95,0.01,,,0.06,40.00,VWS V14.01,2013-03-24 15:23:00,
2013-03-24 10:28:00,46.8,45.5,29.60,SSW,194,2.0,20.0,95,0.01,,,0.06,49.00,VWS V14.01,2013-03-24 15:28:00,
2013-03-24 10:33:00,46.8,45.5,29.61,West,274,10.0,19.0,95,0.02,,,0.07,65.00,VWS V14.01,2013-03-24 15:33:00,
2013-03-24 10:38:00,46.6,45.2,29.61,WSW,257,8.0,19.0,95,0.02,,,0.07,105.00,VWS V14.01,2013-03-24 15:38:00,
2013-03-24 10:43:00,46.6,45.2,29.61,WSW,242,3.0,18.0,95,0.02,,,0.07,116.00,VWS V14.01,2013-03-24 15:43:00,
2013-03-24 10:48:00,46.5,45.2,29.61,West,281,8.0,18.0,95,0.02,,,0.07,88.00,VWS V14.01,2013-03-24 15:48:00,
2013-03-24 10:53:00,46.4,45.0,29.60,West,279,6.0,18.0,95,0.02,,,0.07,98.00,VWS V14.01,2013-03-24 15:53:00,
2013-03-24 10:58:00,46.3,45.0,29.60,West,269,6.0,18.0,95,0.02,,,0.07,118.00,VWS V14.01,2013-03-24 15:58:00,
2013-03-24 11:03:00,46.4,45.0,29.60,WSW,248,5.0,10.0,95,0.01,,,0.07,118.00,VWS V14.01,2013-03-24 16:03:00,
2013-03-24 11:08:00,46.6,45.2,29.60,West,276,14.0,14.0,95,0.01,,,0.07,153.00,VWS V14.01,2013-03-24 16:08:00,
2013-03-24 11:13:00,46.6,45.2,29.60,WSW,257,3.0,16.0,95,0.01,,,0.07,39.00,VWS V14.01,2013-03-24 16:13:00,
2013-03-24 11:18:00,46.4,45.0,29.60,West,265,5.0,16.0,95,0.01,,,0.07,46.00,VWS V14.01,2013-03-24 16:18:00,
2013-03-24 11:23:00,46.1,44.8,29.60,West,274,6.0,20.0,95,0.01,,,0.07,56.00,VWS V14.01,2013-03-24 16:23:00,
2013-03-24 11:28:00,46.0,44.7,29.60,WNW,297,8.0,20.0,95,0.01,,,0.07,63.00,VWS V14.01,2013-03-24 16:28:00,
2013-03-24 11:33:00,46.0,44.7,29.60,West,271,9.0,14.0,95,0.00,,,0.07,72.00,VWS V14.01,2013-03-24 16:33:00,
2013-03-24 11:38:00,46.2,44.8,29.60,West,279,6.0,21.0,95,0.00,,,0.07,158.00,VWS V14.01,2013-03-24 16:38:00,
2013-03-24 11:43:00,46.5,45.2,29.60,West,267,2.0,13.0,95,0.00,,,0.07,134.00,VWS V14.01,2013-03-24 16:43:00,
2013-03-24 11:48:00,46.7,45.3,29.60,West,271,4.0,13.0,95,0.00,,,0.07,77.00,VWS V14.01,2013-03-24 16:48:00,
2013-03-24 11:53:00,46.7,45.1,29.60,West,265,13.0,21.0,94,0.00,,,0.07,130.00,VWS V14.01,2013-03-24 16:53:00,
2013-03-24 11:58:00,46.7,45.1,29.61,NW,310,14.0,21.0,94,0.00,,,0.07,338.00,VWS V14.01,2013-03-24 16:58:00,
2013-03-24 12:03:00,47.2,45.6,29.60,NW,326,10.0,17.0,94,0.00,,,0.07,914.00,VWS V14.01,2013-03-24 17:03:00,
2013-03-24 12:08:00,48.3,46.7,29.60,WSW,257,5.0,17.0,94,0.00,,,0.07,1044.00,VWS V14.01,2013-03-24 17:08:00,
2013-03-24 12:13:00,49.3,47.4,29.60,West,269,12.0,18.0,93,0.00,,,0.07,1018.00,VWS V14.01,2013-03-24 17:13:00,
2013-03-24 12:18:00,49.0,45.9,29.61,NNW,329,12.0,26.0,89,0.00,,,0.07,197.00,VWS V14.01,2013-03-24 17:18:00,
2013-03-24 12:23:00,48.4,43.8,29.61,West,275,12.0,27.0,84,0.00,,,0.07,292.00,VWS V14.01,2013-03-24 17:23:00,
2013-03-24 12:28:00,49.1,44.5,29.61,West,280,10.0,27.0,84,0.00,,,0.07,469.00,VWS V14.01,2013-03-24 17:28:00,
2013-03-24 12:33:00,49.9,44.3,29.61,WSW,245,5.0,21.0,81,0.00,,,0.07,281.00,VWS V14.01,2013-03-24 17:33:00,
2013-03-24 12:38:00,49.8,43.2,29.61,West,277,15.0,23.0,78,0.00,,,0.07,1262.00,VWS V14.01,2013-03-24 17:38:00,
2013-03-24 12:43:00,49.3,41.0,29.61,WSW,256,11.0,21.0,73,0.00,,,0.07,181.00,VWS V14.01,2013-03-24 17:43:00,
2013-03-24 12:48:00,48.3,39.7,29.62,WSW,254,13.0,26.0,72,0.00,,,0.07,390.00,VWS V14.01,2013-03-24 17:48:00,
2013-03-24 12:54:00,47.8,39.2,29.62,WNW,284,3.0,15.0,72,0.00,,,0.07,239.00,VWS V14.01,2013-03-24 17:54:00,
2013-03-24 12:59:00,47.0,38.1,29.63,WSW,246,14.0,19.0,71,0.00,,,0.07,151.00,VWS V14.01,2013-03-24 17:59:00,
2013-03-24 13:03:00,46.4,37.9,29.64,West,267,20.0,20.0,72,0.00,,,0.07,185.00,VWS V14.01,2013-03-24 18:03:00,
2013-03-24 13:09:00,45.7,36.5,29.64,WNW,294,15.0,30.0,70,0.00,,,0.07,165.00,VWS V14.01,2013-03-24 18:09:00,
2013-03-24 13:14:00,45.0,35.5,29.64,East,90,11.0,32.0,69,0.00,,,0.07,172.00,VWS V14.01,2013-03-24 18:14:00,
2013-03-24 13:18:00,44.6,35.4,29.64,West,265,9.0,32.0,70,0.00,,,0.07,156.00,VWS V14.01,2013-03-24 18:18:00,
2013-03-24 13:23:00,44.7,35.9,29.65,WNW,296,11.0,24.0,71,0.00,,,0.07,199.00,VWS V14.01,2013-03-24 18:23:00,
2013-03-24 13:28:00,44.6,35.4,29.65,WNW,292,16.0,24.0,70,0.00,,,0.07,135.00,VWS V14.01,2013-03-24 18:28:00,
2013-03-24 13:33:00,44.4,35.2,29.65,West,279,8.0,19.0,70,0.00,,,0.07,123.00,VWS V14.01,2013-03-24 18:33:00,
2013-03-24 13:38:00,44.3,35.2,29.65,SW,234,7.0,27.0,70,0.00,,,0.07,91.00,VWS V14.01,2013-03-24 18:38:00,
2013-03-24 13:43:00,44.1,35.0,29.66,West,270,8.0,25.0,70,0.00,,,0.07,93.00,VWS V14.01,2013-03-24 18:43:00,
2013-03-24 13:48:00,44.0,34.9,29.66,WSW,254,24.0,26.0,70,0.00,,,0.07,84.00,VWS V14.01,2013-03-24 18:48:00,
2013-03-24 13:53:00,43.8,35.0,29.65,WSW,254,8.0,24.0,71,0.00,,,0.07,148.00,VWS V14.01,2013-03-24 18:53:00,
2013-03-24 13:59:00,43.9,35.1,29.66,West,280,6.0,24.0,71,0.00,,,0.07,199.00,VWS V14.01,2013-03-24 18:59:00,
2013-03-24 14:04:00,44.1,35.0,29.65,WNW,287,6.0,21.0,70,0.00,,,0.07,81.00,VWS V14.01,2013-03-24 19:04:00,
2013-03-24 14:09:00,44.0,35.2,29.66,West,261,6.0,22.0,71,0.00,,,0.07,76.00,VWS V14.01,2013-03-24 19:09:00,
2013-03-24 14:14:00,43.8,35.0,29.66,West,261,9.0,18.0,71,0.00,,,0.07,86.00,VWS V14.01,2013-03-24 19:14:00,
2013-03-24 14:19:00,43.5,34.7,29.66,WSW,241,6.0,18.0,71,0.00,,,0.07,97.00,VWS V14.01,2013-03-24 19:19:00,
2013-03-24 14:24:00,43.5,34.7,29.66,WNW,295,19.0,25.0,71,0.00,,,0.07,102.00,VWS V14.01,2013-03-24 19:24:00,
2013-03-24 14:29:00,43.5,34.7,29.66,WNW,289,12.0,25.0,71,0.00,,,0.07,95.00,VWS V14.01,2013-03-24 19:29:00,
2013-03-24 14:34:00,43.4,34.6,29.66,SW,234,16.0,22.0,71,0.00,,,0.07,169.00,VWS V14.01,2013-03-24 19:34:00,
2013-03-24 14:39:00,43.7,34.9,29.66,WNW,282,15.0,22.0,71,0.00,,,0.07,230.00,VWS V14.01,2013-03-24 19:39:00,
2013-03-24 14:44:00,44.1,35.0,29.66,South,191,7.0,17.0,70,0.00,,,0.07,158.00,VWS V14.01,2013-03-24 19:44:00,
2013-03-24 14:49:00,44.0,34.9,29.66,WSW,254,10.0,18.0,70,0.00,,,0.07,100.00,VWS V14.01,2013-03-24 19:49:00,
2013-03-24 14:54:00,43.7,34.6,29.66,SW,218,13.0,27.0,70,0.00,,,0.07,113.00,VWS V14.01,2013-03-24 19:54:00,
2013-03-24 14:59:00,43.5,34.4,29.66,WSW,252,15.0,27.0,70,0.00,,,0.07,218.00,VWS V14.01,2013-03-24 19:59:00,
2013-03-24 15:04:00,43.6,34.5,29.66,SSW,192,8.0,24.0,70,0.00,,,0.07,158.00,VWS V14.01,2013-03-24 20:04:00,
2013-03-24 15:09:00,43.5,34.4,29.67,WNW,291,18.0,28.0,70,0.00,,,0.07,153.00,VWS V14.01,2013-03-24 20:09:00,
2013-03-24 15:14:00,43.2,33.7,29.68,West,279,18.0,30.0,69,0.00,,,0.07,132.00,VWS V14.01,2013-03-24 20:14:00,
2013-03-24 15:19:00,43.1,34.0,29.68,West,277,24.0,30.0,70,0.00,,,0.07,77.00,VWS V14.01,2013-03-24 20:19:00,
2013-03-24 15:24:00,43.1,34.3,29.68,WSW,253,5.0,16.0,71,0.00,,,0.07,56.00,VWS V14.01,2013-03-24 20:24:00,
2013-03-24 15:29:00,42.9,34.2,29.68,West,280,5.0,30.0,71,0.00,,,0.07,53.00,VWS V14.01,2013-03-24 20:29:00,
2013-03-24 15:34:00,42.8,34.1,29.68,West,276,15.0,25.0,71,0.00,,,0.07,74.00,VWS V14.01,2013-03-24 20:34:00,
2013-03-24 15:39:00,42.5,33.8,29.68,WNW,288,8.0,29.0,71,0.00,,,0.07,97.00,VWS V14.01,2013-03-24 20:39:00,
2013-03-24 15:44:00,42.4,34.0,29.68,West,277,19.0,24.0,72,0.00,,,0.07,53.00,VWS V14.01,2013-03-24 20:44:00,
2013-03-24 15:49:00,42.2,33.8,29.69,WSW,246,8.0,24.0,72,0.00,,,0.07,58.00,VWS V14.01,2013-03-24 20:49:00,
2013-03-24 15:54:00,42.0,33.6,29.69,West,265,11.0,23.0,72,0.00,,,0.07,72.00,VWS V14.01,2013-03-24 20:54:00,
2013-03-24 15:59:00,42.0,33.6,29.69,West,265,9.0,23.0,72,0.00,,,0.07,93.00,VWS V14.01,2013-03-24 20:59:00,
2013-03-24 16:04:00,42.2,34.2,29.69,WSW,257,22.0,28.0,73,0.00,,,0.07,77.00,VWS V14.01,2013-03-24 21:04:00,
2013-03-24 16:09:00,42.1,33.7,29.69,West,261,7.0,28.0,72,0.00,,,0.07,60.00,VWS V14.01,2013-03-24 21:09:00,
2013-03-24 16:14:00,42.0,33.6,29.70,WNW,288,19.0,27.0,72,0.00,,,0.07,33.00,VWS V14.01,2013-03-24 21:14:00,
2013-03-24 16:19:00,41.9,33.5,29.70,WSW,244,5.0,27.0,72,0.00,,,0.07,25.00,VWS V14.01,2013-03-24 21:19:00,
2013-03-24 16:24:00,41.8,33.8,29.70,West,261,7.0,22.0,73,0.00,,,0.07,30.00,VWS V14.01,2013-03-24 21:24:00,
2013-03-24 16:29:00,41.8,34.1,29.71,West,273,18.0,23.0,74,0.00,,,0.07,23.00,VWS V14.01,2013-03-24 21:29:00,
2013-03-24 16:34:00,41.7,34.0,29.71,WNW,292,10.0,17.0,74,0.00,,,0.07,28.00,VWS V14.01,2013-03-24 21:34:00,
2013-03-24 16:39:00,41.7,33.7,29.71,West,267,12.0,18.0,73,0.00,,,0.07,32.00,VWS V14.01,2013-03-24 21:39:00,
2013-03-24 16:44:00,41.7,33.7,29.71,WNW,296,9.0,20.0,73,0.00,,,0.07,18.00,VWS V14.01,2013-03-24 21:44:00,
2013-03-24 16:49:00,41.7,34.0,29.72,WSW,244,6.0,20.0,74,0.00,,,0.07,32.00,VWS V14.01,2013-03-24 21:49:00,
2013-03-24 16:54:00,41.8,33.8,29.73,West,279,13.0,24.0,73,0.00,,,0.07,37.00,VWS V14.01,2013-03-24 21:54:00,
2013-03-24 16:59:00,41.8,33.5,29.73,West,277,13.0,24.0,72,0.00,,,0.07,37.00,VWS V14.01,2013-03-24 21:59:00,
2013-03-24 17:04:00,41.9,32.5,29.73,WNW,300,21.0,22.0,69,0.00,,,0.07,62.00,VWS V14.01,2013-03-24 22:04:00,
2013-03-24 17:09:00,42.0,32.2,29.74,West,271,17.0,22.0,68,0.00,,,0.07,18.00,VWS V14.01,2013-03-24 22:09:00,
2013-03-24 17:14:00,41.9,32.1,29.74,NW,315,16.0,30.0,68,0.00,,,0.07,26.00,VWS V14.01,2013-03-24 22:14:00,
2013-03-24 17:19:00,41.9,32.5,29.75,West,275,25.0,30.0,69,0.00,,,0.07,44.00,VWS V14.01,2013-03-24 22:19:00,
2013-03-24 17:24:00,41.7,31.6,29.75,NW,306,19.0,26.0,67,0.00,,,0.07,30.00,VWS V14.01,2013-03-24 22:24:00,
2013-03-24 17:29:00,41.6,31.8,29.75,West,277,11.0,26.0,68,0.00,,,0.07,28.00,VWS V14.01,2013-03-24 22:29:00,
2013-03-24 17:34:00,41.5,31.7,29.76,West,269,12.0,23.0,68,0.00,,,0.07,30.00,VWS V14.01,2013-03-24 22:34:00,
2013-03-24 17:39:00,41.5,31.7,29.76,SW,223,4.0,23.0,68,0.00,,,0.07,30.00,VWS V14.01,2013-03-24 22:39:00,
2013-03-24 17:44:00,41.5,31.4,29.76,SW,219,16.0,25.0,67,0.00,,,0.07,25.00,VWS V14.01,2013-03-24 22:44:00,
2013-03-24 17:49:00,41.5,31.4,29.76,WNW,286,10.0,25.0,67,0.00,,,0.07,16.00,VWS V14.01,2013-03-24 22:49:00,
2013-03-24 17:54:00,41.4,30.9,29.77,WNW,283,18.0,24.0,66,0.00,,,0.07,18.00,VWS V14.01,2013-03-24 22:54:00,
2013-03-24 17:59:00,41.2,31.1,29.78,West,273,27.0,30.0,67,0.00,,,0.07,18.00,VWS V14.01,2013-03-24 22:59:00,
2013-03-24 18:04:00,41.1,31.0,29.78,WNW,288,28.0,28.0,67,0.00,,,0.07,14.00,VWS V14.01,2013-03-24 23:04:00,
2013-03-24 18:09:00,41.0,30.5,29.78,WSW,247,9.0,28.0,66,0.00,,,0.07,16.00,VWS V14.01,2013-03-24 23:09:00,
2013-03-24 18:14:00,40.9,30.8,29.78,WNW,284,18.0,30.0,67,0.00,,,0.07,18.00,VWS V14.01,2013-03-24 23:14:00,
2013-03-24 18:19:00,40.9,30.4,29.79,West,275,13.0,30.0,66,0.00,,,0.07,11.00,VWS V14.01,2013-03-24 23:19:00,
2013-03-24 18:24:00,40.9,30.8,29.80,WNW,287,13.0,23.0,67,0.00,,,0.07,9.00,VWS V14.01,2013-03-24 23:24:00,
2013-03-24 18:29:00,40.9,30.8,29.80,WNW,288,14.0,23.0,67,0.00,,,0.07,11.00,VWS V14.01,2013-03-24 23:29:00,
2013-03-24 18:34:00,41.0,30.9,29.80,West,277,16.0,19.0,67,0.00,,,0.07,12.00,VWS V14.01,2013-03-24 23:34:00,
2013-03-24 18:39:00,40.9,30.4,29.80,West,279,15.0,30.0,66,0.00,,,0.07,9.00,VWS V14.01,2013-03-24 23:39:00,
2013-03-24 18:44:00,40.9,30.1,29.81,West,281,21.0,31.0,65,0.00,,,0.07,0.00,VWS V14.01,2013-03-24 23:44:00,
2013-03-24 18:49:00,40.7,30.2,29.82,NNW,336,5.0,31.0,66,0.00,,,0.07,0.00,VWS V14.01,2013-03-24 23:49:00,
2013-03-24 18:54:00,40.6,30.1,29.82,WNW,292,14.0,27.0,66,0.00,,,0.07,0.00,VWS V14.01,2013-03-24 23:54:00,
2013-03-24 18:59:00,40.6,30.1,29.82,WNW,284,10.0,27.0,66,0.00,,,0.07,0.00,VWS V14.01,2013-03-24 23:59:00,
2013-03-24 19:04:00,40.6,30.5,29.82,WNW,286,21.0,23.0,67,0.00,,,0.07,0.00,VWS V14.01,2013-03-25 00:04:00,
2013-03-24 19:09:00,40.2,30.1,29.83,WNW,285,21.0,33.0,67,0.00,,,0.07,0.00,VWS V14.01,2013-03-25 00:09:00,
2013-03-24 19:14:00,40.1,29.7,29.83,WNW,283,15.0,38.0,66,0.00,,,0.07,0.00,VWS V14.01,2013-03-25 00:14:00,
2013-03-24 19:19:00,40.0,29.9,29.83,WNW,283,13.0,38.0,67,0.00,,,0.07,0.00,VWS V14.01,2013-03-25 00:19:00,
2013-03-24 19:24:00,40.0,29.9,29.84,West,267,11.0,26.0,67,0.00,,,0.07,0.00,VWS V14.01,2013-03-25 00:24:00,
2013-03-24 19:29:00,40.0,29.9,29.84,West,277,16.0,29.0,67,0.00,,,0.07,0.00,VWS V14.01,2013-03-25 00:29:00,
2013-03-24 19:34:00,39.9,29.9,29.84,West,279,17.0,23.0,67,0.00,,,0.07,0.00,VWS V14.01,2013-03-25 00:34:00,
2013-03-24 19:39:00,39.9,29.5,29.84,West,269,6.0,26.0,66,0.00,,,0.07,0.00,VWS V14.01,2013-03-25 00:39:00,
2013-03-24 19:44:00,39.8,29.4,29.85,WNW,294,15.0,22.0,66,0.00,,,0.07,0.00,VWS V14.01,2013-03-25 00:44:00,
2013-03-24 19:49:00,39.8,29.4,29.85,WNW,294,12.0,22.0,66,0.00,,,0.07,0.00,VWS V14.01,2013-03-25 00:49:00,
2013-03-24 19:54:00,39.7,29.7,29.85,West,271,16.0,29.0,67,0.00,,,0.07,0.00,VWS V14.01,2013-03-25 00:54:00,
2013-03-24 19:59:00,39.6,29.6,29.86,West,277,21.0,29.0,67,0.00,,,0.07,0.00,VWS V14.01,2013-03-25 00:59:00,
2013-03-24 20:04:00,39.3,28.9,29.86,WNW,284,21.0,30.0,66,0.00,,,0.07,0.00,VWS V14.01,2013-03-25 01:04:00,
2013-03-24 20:09:00,39.2,29.2,29.86,West,276,14.0,30.0,67,0.00,,,0.07,0.00,VWS V14.01,2013-03-25 01:09:00,
2013-03-24 20:14:00,39.1,29.1,29.87,WSW,254,10.0,21.0,67,0.00,,,0.07,0.00,VWS V14.01,2013-03-25 01:14:00,
2013-03-24 20:19:00,39.1,29.1,29.87,WSW,257,17.0,25.0,67,0.00,,,0.07,0.00,VWS V14.01,2013-03-25 01:19:00,
2013-03-24 20:24:00,39.0,29.0,29.87,NW,317,18.0,23.0,67,0.00,,,0.07,0.00,VWS V14.01,2013-03-25 01:24:00,
2013-03-24 20:29:00,39.0,29.0,29.87,West,268,11.0,27.0,67,0.00,,,0.07,0.00,VWS V14.01,2013-03-25 01:29:00,
2013-03-24 20:34:00,39.0,29.0,29.87,WNW,289,13.0,19.0,67,0.00,,,0.07,0.00,VWS V14.01,2013-03-25 01:34:00,
2013-03-24 20:39:00,39.0,28.6,29.88,West,279,17.0,23.0,66,0.00,,,0.07,0.00,VWS V14.01,2013-03-25 01:39:00,
2013-03-24 20:44:00,39.1,28.7,29.88,West,277,19.0,27.0,66,0.00,,,0.07,0.00,VWS V14.01,2013-03-25 01:44:00,
2013-03-24 20:49:00,39.0,28.6,29.88,WNW,296,8.0,28.0,66,0.00,,,0.07,0.00,VWS V14.01,2013-03-25 01:49:00,
2013-03-24 20:54:00,38.9,28.5,29.89,West,269,11.0,20.0,66,0.00,,,0.07,0.00,VWS V14.01,2013-03-25 01:54:00,
2013-03-24 20:59:00,38.9,28.9,29.89,WNW,298,10.0,22.0,67,0.00,,,0.07,0.00,VWS V14.01,2013-03-25 01:59:00,
2013-03-24 21:04:00,38.9,28.5,29.89,West,272,19.0,28.0,66,0.00,,,0.07,0.00,VWS V14.01,2013-03-25 02:04:00,
2013-03-24 21:09:00,38.9,28.5,29.90,WNW,293,7.0,28.0,66,0.00,,,0.07,0.00,VWS V14.01,2013-03-25 02:09:00,
2013-03-24 21:14:00,38.8,28.8,29.90,WNW,292,9.0,20.0,67,0.00,,,0.07,0.00,VWS V14.01,2013-03-25 02:14:00,
2013-03-24 21:19:00,38.7,28.7,29.90,WNW,290,11.0,20.0,67,0.00,,,0.07,0.00,VWS V14.01,2013-03-25 02:19:00,
2013-03-24 21:24:00,38.6,28.6,29.91,WNW,286,14.0,23.0,67,0.00,,,0.07,0.00,VWS V14.01,2013-03-25 02:24:00,
2013-03-24 21:29:00,38.5,28.1,29.91,WNW,299,13.0,27.0,66,0.00,,,0.07,0.00,VWS V14.01,2013-03-25 02:29:00,
2013-03-24 21:34:00,38.4,27.7,29.91,WNW,284,12.0,25.0,65,0.00,,,0.07,0.00,VWS V14.01,2013-03-25 02:34:00,
2013-03-24 21:39:00,38.4,28.0,29.91,WNW,294,9.0,25.0,66,0.00,,,0.07,0.00,VWS V14.01,2013-03-25 02:39:00,
2013-03-24 21:44:00,38.4,28.0,29.91,WNW,295,13.0,19.0,66,0.00,,,0.07,0.00,VWS V14.01,2013-03-25 02:44:00,
2013-03-24 21:49:00,38.4,28.4,29.91,West,280,21.0,21.0,67,0.00,,,0.07,0.00,VWS V14.01,2013-03-25 02:49:00,
2013-03-24 21:54:00,38.3,28.3,29.92,WNW,287,14.0,24.0,67,0.00,,,0.07,0.00,VWS V14.01,2013-03-25 02:54:00,
2013-03-24 21:59:00,38.2,27.9,29.92,WNW,292,12.0,26.0,66,0.00,,,0.07,0.00,VWS V14.01,2013-03-25 02:59:00,
2013-03-24 22:04:00,38.2,28.2,29.92,West,259,11.0,19.0,67,0.00,,,0.07,0.00,VWS V14.01,2013-03-25 03:04:00,
2013-03-24 22:09:00,38.1,27.8,29.92,NW,313,9.0,27.0,66,0.00,,,0.07,0.00,VWS V14.01,2013-03-25 03:09:00,
2013-03-24 22:14:00,38.1,27.8,29.92,WNW,282,16.0,26.0,66,0.00,,,0.07,0.00,VWS V14.01,2013-03-25 03:14:00,
2013-03-24 22:19:00,38.0,27.7,29.92,WNW,287,12.0,26.0,66,0.00,,,0.07,0.00,VWS V14.01,2013-03-25 03:19:00,
2013-03-24 22:24:00,37.9,27.2,29.92,West,275,18.0,23.0,65,0.00,,,0.07,0.00,VWS V14.01,2013-03-25 03:24:00,
2013-03-24 22:29:00,37.8,27.5,29.92,NW,319,8.0,23.0,66,0.00,,,0.07,0.00,VWS V14.01,2013-03-25 03:29:00,
2013-03-24 22:34:00,37.7,27.4,29.92,WNW,285,11.0,23.0,66,0.00,,,0.07,0.00,VWS V14.01,2013-03-25 03:34:00,
2013-03-24 22:39:00,37.5,27.2,29.93,WNW,296,10.0,26.0,66,0.00,,,0.07,0.00,VWS V14.01,2013-03-25 03:39:00,
2013-03-24 22:44:00,37.3,27.0,29.93,WNW,290,17.0,28.0,66,0.00,,,0.07,0.00,VWS V14.01,2013-03-25 03:44:00,
2013-03-24 22:49:00,37.2,26.9,29.93,West,280,10.0,28.0,66,0.00,,,0.07,0.00,VWS V14.01,2013-03-25 03:49:00,
2013-03-24 22:54:00,37.1,27.2,29.93,WNW,287,18.0,22.0,67,0.00,,,0.07,0.00,VWS V14.01,2013-03-25 03:54:00,
2013-03-24 22:59:00,37.0,27.1,29.93,West,264,15.0,22.0,67,0.00,,,0.07,0.00,VWS V14.01,2013-03-25 03:59:00,
2013-03-24 23:00:00,36.9,27.0,29.93,NNW,336,9.0,22.0,67,0.00,,,0.07,0.00,VWS V14.01,2013-03-25 04:00:00,
2013-03-24 23:05:00,36.9,26.6,29.93,WNW,296,20.0,28.0,66,0.00,,,0.07,0.00,VWS V14.01,2013-03-25 04:05:00,
2013-03-24 23:10:00,36.8,26.9,29.93,WNW,293,12.0,28.0,67,0.00,,,0.07,0.00,VWS V14.01,2013-03-25 04:10:00,
2013-03-24 23:15:00,36.7,26.8,29.93,NW,326,8.0,21.0,67,0.00,,,0.07,0.00,VWS V14.01,2013-03-25 04:15:00,
2013-03-24 23:20:00,36.5,26.6,29.93,WNW,285,20.0,20.0,67,0.00,,,0.07,0.00,VWS V14.01,2013-03-25 04:20:00,
2013-03-24 23:25:00,36.5,26.2,29.94,WNW,300,13.0,27.0,66,0.00,,,0.07,0.00,VWS V14.01,2013-03-25 04:25:00,
2013-03-24 23:30:00,36.5,26.2,29.94,WNW,288,13.0,27.0,66,0.00,,,0.07,0.00,VWS V14.01,2013-03-25 04:30:00,
2013-03-24 23:35:00,36.4,26.1,29.94,West,277,5.0,20.0,66,0.00,,,0.07,0.00,VWS V14.01,2013-03-25 04:35:00,
2013-03-24 23:40:00,36.4,26.1,29.94,West,278,17.0,22.0,66,0.00,,,0.07,0.00,VWS V14.01,2013-03-25 04:40:00,
2013-03-24 23:45:00,36.6,26.7,29.94,WNW,291,15.0,22.0,67,0.00,,,0.07,0.00,VWS V14.01,2013-03-25 04:45:00,
2013-03-24 23:50:00,36.6,26.7,29.95,WNW,284,6.0,8.0,67,0.00,,,0.07,0.00,VWS V14.01,2013-03-25 04:50:00,
2013-03-24 23:55:00,36.7,27.1,29.95,WNW,288,13.0,21.0,68,0.00,,,0.07,0.00,VWS V14.01,2013-03-25 04:55:00,